Sidney Municipal-Lloyd W Carr Field
KSNY : now visible

Airfield :











YOU CAN JOIN US ON...

 
LOGIN :

Register | Disclaimer

   EN    FR    IT 

 









Legend :    VFR   Marginal VFR   IFR   Intensive IFR   Very Intensive IFR
Visi :
Ceiling :
>= 8 km
>= 3000ft
5 to 8 km
1000 to 3000 ft
1500m to 5 km
500 to 1000 ft
800 to 1500m
200 to 500 ft
< 800m
< 200 ft
Symbols :   Thunderstorms  Fog  Heavy snow  Heavy precipitations  Wind > 20 kt






- Airport Elevation : 4313 ft


KSNY - Sidney Municipal-Lloyd W Carr Field

CURRENT METAR :
  • 272053Z AUTO 32019KT 10SM FEW055 BKN070 BKN090 03/M06 A2969 RMK AO2 PK WND 31029/2033 SLP075 T00281061 53009

EXPIRED METARs :
  • 271953Z AUTO 32020KT 10SM FEW019 SCT060 04/M04 A2966 RMK AO2 PK WND 32030/1936 SLP066 T00391039 $
  • 271853Z AUTO 31009KT 10SM OVC065 05/M10 A2967 RMK AO2 SLP068 T00501100 $

TAF KSNY
Valid from the 27 at 18:00 until the 28 at 18:00 UTC


271741Z 2718/2818 30020G30KT P6SM BKN120
FM280200 28014KT P6SM SKC
FM280600 31019G29KT P6SM SKC
KZDV FIR / North America



MET'MAP, your aeronautical weather chart ! - Copyright ORBIFLY December 2007 - Disclaimer

ORBIFLY MET'MAP TEAM :

Programming & Development : Alexandra Zaïnal
Concept & original design : Baudouin d'Aumeries
Assistance for programming : Marc-Olivier Méhu
Technical & hardware support : Manuel Goepfert

Contact : metmap@orbifly.com




SOURCES & CREDITS :

   NOAA       Earth
Advisory